DB0ADS-6 Weather Reports


time (UTC)temp
C
wind
direction
speed
KPH
gust
KPH
rain 1hr
cm
rain 24hr
cm
rain mn
cm
humidity
%
barometer
mb
20260506121551 17 237 4.8 9.7 0.00 0.86 0.05 59 1003.8
20260506121051 17 268 4.8 9.7 0.00 0.86 0.05 59 1003.8
20260506120554 17 256 3.2 6.4 0.00 0.86 0.05 59 1003.8
20260506120045 16 146 3.2 6.4 0.00 0.86 0.05 63 1003.8
20260506115543 16 175 1.6 6.4 0.00 0.86 0.05 61 1004.0
20260506115045 16 168 3.2 6.4 0.00 0.86 0.05 63 1003.9
20260506114540 16 304 1.6 6.4 0.00 0.86 0.05 60 1003.9
20260506114038 17 319 3.2 9.7 0.00 0.86 0.05 60 1003.9
20260506113537 17 183 3.2 6.4 0.00 0.86 0.05 61 1004.0
20260506113035 16 186 1.6 6.4 0.00 0.86 0.05 61 1003.9
20260506112533 16 225 3.2 11.3 0.00 0.86 0.05 60 1004.0
20260506112031 16 229 4.8 11.3 0.00 0.86 0.05 63 1004.1
20260506111530 16 185 4.8 6.4 0.00 0.86 0.05 62 1004.1
20260506111035 16 140 3.2 6.4 0.00 0.86 0.05 62 1004.2
20260506110527 16 194 4.8 11.3 0.00 0.86 0.05 61 1004.1
20260506110024 16 218 3.2 9.7 0.00 0.86 0.05 61 1004.1
20260506105523 16 169 6.4 12.9 0.00 0.86 0.05 62 1004.2
20260506105021 16 175 3.2 9.7 0.00 0.86 0.05 64 1004.2
20260506104519 16 161 8.0 11.3 0.00 0.86 0.05 65 1004.2
20260506104038 16 230 3.2 12.9 0.00 0.86 0.05 61 1004.2
20260506103536 16 247 1.6 6.4 0.00 0.86 0.05 61 1004.4
20260506103115 16 228 6.4 9.7 0.00 0.86 0.05 64 1004.2
20260506102614 16 161 3.2 6.4 0.00 0.86 0.05 64 1004.3
20260506102111 15 193 4.8 9.7 0.00 0.86 0.05 64 1004.3
20260506101609 16 196 8.0 12.9 0.00 0.86 0.05 65 1004.4
20260506101128 16 160 4.8 12.9 0.00 0.86 0.05 63 1004.4
20260506100606 15 187 6.4 12.9 0.00 0.86 0.05 66 1004.4
20260506100124 16 219 3.2 9.7 0.00 0.86 0.05 66 1004.3
20260506095603 16 177 4.8 6.4 0.00 0.86 0.05 68 1004.3
20260506095101 15 155 9.7 17.7 0.00 0.86 0.05 70 1004.3
20260506094559 15 156 4.8 17.7 0.00 0.86 0.05 70 1004.3
20260506094057 15 231 4.8 11.3 0.00 0.86 0.05 70 1004.3
20260506093556 15 151 3.2 9.7 0.00 0.86 0.05 71 1004.4
20260506093054 15 146 6.4 9.7 0.00 0.86 0.05 72 1004.5
20260506092552 15 180 6.4 11.3 0.00 0.86 0.05 71 1004.5
20260506092051 14 201 4.8 9.7 0.00 0.86 0.05 73 1004.6
20260506091550 14 221 4.8 11.3 0.00 0.86 0.05 75 1004.5
20260506091050 14 221 4.8 11.3 0.00 0.86 0.05 76 1004.6
20260506090546 13 208 3.2 9.7 0.00 0.86 0.05 78 1004.6
20260506090044 14 202 1.6 6.4 0.00 0.86 0.05 77 1004.6
20260506085542 14 213 3.2 6.4 0.00 0.86 0.05 77 1004.6
20260506085101 14 183 3.2 6.4 0.00 0.86 0.05 77 1004.6
20260506084539 15 229 3.2 6.4 0.00 0.86 0.05 75 1004.6
20260506084037 14 170 4.8 9.7 0.00 0.86 0.05 77 1004.6
20260506083535 13 139 4.8 9.7 0.00 0.86 0.05 79 1004.5
20260506083033 13 127 6.4 11.3 0.00 0.86 0.05 80 1004.6
20260506082532 13 185 4.8 12.9 0.00 0.86 0.05 79 1004.5
20260506082030 13 203 3.2 9.7 0.00 0.86 0.05 81 1004.5
20260506081529 12 272 1.6 6.4 0.00 0.86 0.05 83 1004.5
20260506081027 12 300 3.2 6.4 0.00 0.86 0.05 83 1004.5
20260506080526 12 260 4.8 11.3 0.00 0.86 0.05 85 1004.5
20260506073116 12 248 3.2 11.3 0.00 0.86 0.05 86 1004.3
20260506072631 12 248 3.2 6.4 0.00 0.86 0.05 87 1004.3
20260506072109 12 239 6.4 11.3 0.00 0.86 0.05 87 1004.3
20260506071611 12 229 4.8 11.3 0.00 0.86 0.05 87 1004.2
20260506071126 12 233 4.8 9.7 0.00 0.86 0.05 87 1004.2
20260506070605 12 227 3.2 6.4 0.00 0.86 0.05 88 1004.2
20260506070103 12 234 4.8 6.4 0.00 0.86 0.05 87 1004.2
20260506062052 11 123 4.8 6.4 0.00 0.86 0.05 92 1004.1
20260506061550 11 129 1.6 6.4 0.00 0.86 0.05 93 1004.1
20260506061046 11 135 1.6 3.2 0.00 0.86 0.05 94 1004.1
20260506060544 11 135 1.6 6.4 0.00 0.86 0.05 94 1004.2
20260506051025 11 135 3.2 6.4 0.00 0.86 0.05 95 1004.5
20260506050523 11 135 4.8 6.4 0.00 0.86 0.05 95 1004.4
20260506045020 11 180 1.6 3.2 0.00 0.86 0.05 94 1004.3
20260506044516 11 195 1.6 6.4 0.00 0.86 0.05 93 1004.3
20260506044115 11 203 1.6 6.4 0.00 0.86 0.05 93 1004.1
20260506043653 11 215 1.6 6.4 0.00 0.86 0.05 94 1004.2
20260506043111 11 220 1.6 6.4 0.00 0.86 0.05 94 1004.2
20260506042610 11 203 1.6 6.4 0.00 0.86 0.05 94 1004.2
20260506042108 11 203 1.6 6.4 0.00 0.86 0.05 95 1004.3
20260506041606 11 248 1.6 3.2 0.00 0.86 0.05 95 1004.3
20260506041106 11 195 3.2 6.4 0.00 0.86 0.05 95 1004.2
20260506040603 11 192 3.2 6.4 0.00 0.86 0.05 95 1004.2
20260506040101 11 220 4.8 11.3 0.00 0.86 0.05 95 1004.2
20260506035559 11 198 4.8 9.7 0.00 0.86 0.05 96 1004.2
20260506035118 11 206 4.8 6.4 0.00 0.86 0.05 95 1004.2
20260506034616 11 207 3.2 9.7 0.00 0.86 0.05 95 1004.2
20260506034054 11 199 4.8 9.7 0.00 0.86 0.05 95 1004.3
20260506033555 11 214 3.2 6.4 0.00 0.86 0.05 95 1004.4
20260506033052 11 220 3.2 6.4 0.00 0.86 0.05 95 1004.4
20260506032552 11 225 4.8 9.7 0.00 0.86 0.05 95 1004.4
20260506032047 11 225 1.6 6.4 0.00 0.86 0.05 95 1004.3
20260506031545 11 225 1.6 6.4 0.00 0.86 0.05 95 1004.4
20260506031044 11 225 3.2 6.4 0.00 0.86 0.05 95 1004.3
20260506030542 11 208 3.2 6.4 0.00 0.86 0.05 95 1004.2
20260506030041 11 177 3.2 6.4 0.00 0.86 0.05 95 1004.3
20260506025538 11 178 1.6 6.4 0.00 0.86 0.05 95 1004.4
20260506025037 11 178 3.2 9.7 0.00 0.86 0.05 95 1004.4
20260506024555 11 201 4.8 6.4 0.00 0.86 0.05 95 1004.5
20260506024035 11 222 3.2 6.4 0.00 0.86 0.05 95 1004.4
20260506023532 11 242 3.2 6.4 0.00 0.86 0.05 95 1004.3
20260506023030 11 232 4.8 9.7 0.00 0.86 0.05 95 1004.3
20260506022548 11 219 4.8 9.7 0.00 0.86 0.05 94 1004.3
20260506022027 11 194 8.0 17.7 0.00 0.86 0.05 94 1004.4
20260506021545 11 230 3.2 9.7 0.00 0.86 0.05 95 1004.4
20260506021023 11 216 3.2 6.4 0.00 0.86 0.05 95 1004.4
20260506020521 11 214 6.4 12.9 0.00 0.86 0.05 95 1004.4
20260506020021 11 203 1.6 6.4 0.00 0.86 0.05 96 1004.4
20260506015518 11 203 1.6 6.4 0.00 0.86 0.05 95 1004.4
20260506015037 11 203 4.8 6.4 0.00 0.86 0.05 96 1004.4
20260506014615 11 225 3.2 6.4 0.00 0.86 0.05 96 1004.4
20260506014113 11 198 4.8 9.7 0.00 0.86 0.05 96 1004.5
20260506013611 11 213 3.2 6.4 0.00 0.86 0.05 96 1004.5
20260506013110 11 203 3.2 6.4 0.00 0.86 0.05 96 1004.5
20260506012608 11 207 3.2 6.4 0.00 0.86 0.05 96 1004.6
20260506012106 11 173 4.8 6.4 0.00 0.86 0.05 96 1004.6
20260506011605 11 221 3.2 6.4 0.00 0.86 0.05 96 1004.7
20260506011103 11 206 3.2 6.4 0.00 0.86 0.05 96 1004.6
20260506010601 11 211 3.2 6.4 0.00 0.86 0.05 96 1004.7
20260506010100 11 194 3.2 6.4 0.00 0.86 0.05 96 1004.6
20260506005558 11 158 1.6 3.2 0.00 0.86 0.05 97 1004.7
20260506005056 11 145 1.6 3.2 0.00 0.86 0.05 97 1004.6
20260506004554 11 135 0.0 3.2 0.00 0.86 0.05 97 1004.7
20260506004052 11 135 1.6 3.2 0.00 0.86 0.05 97 1004.7
20260506003551 11 135 0.0 3.2 0.00 0.86 0.05 97 1004.7
20260506003050 11 135 0.0 3.2 0.03 0.86 0.05 97 1004.8
20260506002551 11 135 1.6 6.4 0.05 0.86 0.05 96 1004.8
20260506002045 11 135 3.2 6.4 0.05 0.86 0.05 97 1004.9
20260506001544 11 135 3.2 6.4 0.05 0.86 0.05 97 1005.0
20260506001043 11 132 3.2 3.2 0.05 0.86 0.05 97 1005.0
20260506000541 11 135 3.2 3.2 0.05 0.86 0.05 97 1005.0
20260506000039 11 152 3.2 6.4 0.05 0.86 0.05 97 1005.1
20260505235537 11 158 3.2 3.2 0.05 0.86 0.05 97 1005.1
20260505235036 11 158 3.2 3.2 0.05 0.86 0.05 97 1005.1
20260505234533 11 158 1.6 3.2 0.05 0.86 0.05 97 1005.2
20260505234032 11 158 1.6 3.2 0.05 0.86 0.05 97 1005.3
20260505233531 11 158 3.2 6.4 0.05 0.86 0.05 97 1005.3
20260505233028 11 190 3.2 6.4 0.03 0.84 0.03 97 1005.3
20260505232527 11 149 3.2 6.4 0.00 0.81 0.00 97 1005.2
20260505232025 11 143 3.2 6.4 0.00 0.81 0.00 97 1005.2
20260505231523 11 150 3.2 6.4 0.00 0.81 0.00 97 1005.3
20260505231022 11 170 3.2 6.4 0.00 0.81 0.00 97 1005.3
20260505230520 11 135 1.6 3.2 0.00 0.81 0.00 97 1005.4
20260505230018 11 157 3.2 6.4 0.00 0.81 0.00 97 1005.3
20260505225516 11 180 3.2 6.4 0.00 0.81 0.00 97 1005.3
20260505225115 11 180 1.6 6.4 0.00 0.81 0.00 97 1005.3
20260505224613 11 193 3.2 3.2 0.00 0.81 0.00 97 1005.3
20260505224111 11 203 3.2 6.4 0.00 0.81 0.00 97 1005.3
20260505223610 11 225 3.2 6.4 0.00 0.81 0.00 97 1005.4
20260505223111 11 280 1.6 3.2 0.00 0.81 0.00 97 1005.4
20260505222606 11 293 1.6 3.2 0.00 0.81 0.00 97 1005.4
20260505222104 11 293 1.6 3.2 0.00 0.81 0.00 97 1005.3
20260505221623 11 293 3.2 3.2 0.00 0.81 0.00 97 1005.4
20260505221101 11 293 1.6 3.2 0.00 0.81 0.00 97 1005.4
20260505220619 11 293 1.6 3.2 0.00 0.81 0.00 97 1005.4
20260505220057 11 293 1.6 3.2 0.00 0.81 0.00 97 1005.4
20260505215556 11 293 0.0 3.2 0.00 0.81 0.81 97 1005.4
20260505215054 11 293 3.2 3.2 0.00 0.81 0.81 97 1005.5
20260505214552 11 293 1.6 3.2 0.00 0.81 0.81 97 1005.5
20260505214050 11 293 1.6 3.2 0.00 0.81 0.81 97 1005.5
20260505213552 11 293 1.6 3.2 0.00 0.81 0.81 97 1005.5
20260505213050 11 293 1.6 3.2 0.00 0.81 0.81 97 1005.4
20260505212545 11 0.0 3.2 0.00 0.81 0.81 96 1005.4
20260505212043 11 293 1.6 3.2 0.00 0.81 0.81 96 1005.4
20260505211541 11 293 0.0 3.2 0.00 0.81 0.81 96 1005.4
20260505211040 11 0.0 0.0 0.00 0.81 0.81 96 1005.4
20260505210558 11 0.0 3.2 0.00 0.81 0.81 96 1005.5
20260505210036 11 0.0 3.2 0.00 0.81 0.81 96 1005.4
20260505205540 11 293 1.6 3.2 0.00 0.81 0.81 96 1005.3
20260505205033 11 0.0 0.0 0.00 0.81 0.81 96 1005.3
20260505204531 11 293 0.0 3.2 0.00 0.81 0.81 96 1005.3
20260505204029 11 293 0.0 3.2 0.00 0.81 0.81 96 1005.3
20260505203527 11 293 1.6 3.2 0.00 0.81 0.81 95 1005.4
20260505203025 11 293 1.6 3.2 0.00 0.81 0.81 95 1005.2
20260505202523 11 293 1.6 3.2 0.00 0.81 0.81 95 1005.1
20260505202041 11 293 1.6 3.2 0.00 0.81 0.81 95 1005.1
20260505201540 11 293 0.0 3.2 0.00 0.81 0.81 95 1005.2
20260505201018 11 293 1.6 3.2 0.00 0.81 0.81 95 1005.1
20260505200536 12 296 1.6 3.2 0.00 0.81 0.81 94 1005.1
20260505200114 12 315 0.0 3.2 0.00 0.81 0.81 94 1005.1
20260505195612 12 315 3.2 6.4 0.00 0.81 0.81 94 1005.0
20260505195111 12 315 1.6 3.2 0.00 0.81 0.81 94 1005.1
20260505194611 12 315 1.6 6.4 0.00 0.81 0.81 94 1005.1
20260505194127 12 313 1.6 3.2 0.00 0.81 0.81 94 1005.0
20260505193606 12 306 4.8 9.7 0.00 0.81 0.81 93 1005.0
20260505193104 12 315 3.2 6.4 0.00 0.81 0.81 94 1005.0
20260505192602 12 318 4.8 9.7 0.00 0.81 0.81 93 1005.0
20260505192100 12 323 4.8 6.4 0.00 0.81 0.81 93 1004.8
20260505191558 12 315 3.2 9.7 0.00 0.81 0.81 93 1004.9
20260505191056 12 301 4.8 11.3 0.00 0.81 0.81 93 1005.1
20260505190555 12 295 1.6 6.4 0.00 0.81 0.81 94 1005.2
20260505190053 12 289 3.2 6.4 0.00 0.81 0.81 94 1005.2
20260505185551 12 315 3.2 6.4 0.00 0.81 0.81 93 1005.1
20260505185050 12 308 1.6 6.4 0.00 0.81 0.81 94 1005.0
20260505184550 12 270 1.6 3.2 0.00 0.81 0.81 94 1005.0
20260505184045 12 263 1.6 3.2 0.00 0.81 0.81 94 1005.0
20260505183543 12 252 1.6 6.4 0.00 0.81 0.81 94 1005.0
20260505183057 12 278 3.2 6.4 0.00 0.81 0.81 93 1005.0
20260505182540 12 315 1.6 6.4 0.00 0.81 0.81 93 1004.9
20260505182038 12 310 1.6 6.4 0.00 0.81 0.81 93 1004.9
20260505181536 12 319 3.2 6.4 0.00 0.81 0.81 92 1004.9
20260505181034 12 315 3.2 9.7 0.00 0.81 0.81 93 1004.8
20260505180533 12 307 3.2 6.4 0.00 0.81 0.81 93 1004.7
20260505180051 12 315 0.0 3.2 0.00 0.81 0.81 93 1004.7
20260505175529 12 274 3.2 6.4 0.00 0.81 0.81 93 1004.7
20260505175027 12 288 3.2 6.4 0.00 0.81 0.81 93 1004.6
20260505174526 12 292 1.6 6.4 0.00 0.81 0.81 94 1004.5
20260505174024 12 299 3.2 9.7 0.05 0.81 0.81 93 1004.4
20260505173522 12 311 4.8 6.4 0.10 0.81 0.81 93 1004.4
20260505173021 12 307 3.2 6.4 0.13 0.81 0.81 93 1004.4
20260505172519 12 308 3.2 6.4 0.15 0.81 0.81 93 1004.3
20260505172017 12 306 3.2 9.7 0.18 0.81 0.81 92 1004.3
20260505171515 12 277 3.2 11.3 0.23 0.81 0.81 92 1004.3
20260505171115 12 301 4.8 9.7 0.28 0.81 0.81 92 1004.2
20260505170612 12 254 3.2 6.4 0.33 0.81 0.81 92 1004.4
20260505170110 12 296 3.2 6.4 0.38 0.81 0.81 93 1004.3
20260505165708 12 315 3.2 9.7 0.46 0.81 0.81 92 1004.4
20260505165106 12 311 4.8 9.7 0.48 0.81 0.81 92 1004.4
20260505164605 12 311 4.8 9.7 0.51 0.81 0.81 91 1004.6
20260505164103 12 315 3.2 6.4 0.48 0.76 0.76 91 1004.7
20260505163601 12 315 3.2 6.4 0.46 0.71 0.71 90 1004.9
20260505163059 12 309 4.8 9.7 0.43 0.69 0.69 91 1005.0
20260505162558 12 236 4.8 11.3 0.46 0.66 0.66 91 1005.3
20260505162056 12 225 4.8 11.3 0.48 0.64 0.64 91 1005.5
20260505161554 12 246 8.0 17.7 0.48 0.56 0.56 90 1005.4
20260505161052 12 221 4.8 12.9 0.53 0.53 0.53 91 1005.4
20260505160551 12 205 8.0 17.7 0.48 0.48 0.48 90 1005.4
20260505153038 14 270 4.8 12.9 0.28 0.28 0.28 81 1004.2
20260505152536 15 257 4.8 9.7 0.20 0.20 0.20 77 1004.2
20260505152055 16 224 11.3 20.9 0.15 0.15 0.15 70 1004.2
20260505151533 17 229 8.0 17.7 0.10 0.10 0.10 64 1004.0
20260505151031 18 262 3.2 9.7 0.00 0.00 0.00 60 1003.7
20260505150533 18 315 3.2 6.4 0.00 0.00 0.00 58 1003.5
20260505140607 20 338 1.6 3.2 0.00 0.00 0.00 53 1003.8
20260505140105 20 349 1.6 6.4 0.00 0.00 0.00 52 1003.9
20260505125041 21 358 4.8 12.9 0.00 0.00 0.00 52 1004.6
20260505124539 21 38 6.4 14.5 0.00 0.00 0.00 51 1004.7
20260505124037 21 340 4.8 11.3 0.00 0.00 0.00 52 1004.7
20260505123535 20 313 6.4 12.9 0.00 0.00 0.00 54 1004.8
20260505123033 20 308 8.0 14.5 0.00 0.00 0.00 53 1004.9
20260505122531 21 306 9.7 17.7 0.00 0.00 0.00 53 1004.9
20260505122030 20 299 6.4 12.9 0.00 0.00 0.00 52 1004.9